Time_in_sec,Latitude,Longitude,Altitude,Nbsat_max_qualitysignal,Nbsat_locked,valid_data
1314271342.95246887,-0.00007200,0.00005703,-6331.49951172,0,0,0
1314271466.30046988,-0.00007026,0.00005381,-8089.09765625,0,0,0
1314271466.34948397,-0.00007026,0.00005379,-8089.84912109,0,0,0
1314271466.40144277,-0.00007026,0.00005381,-8090.60107422,0,0,0
1314271466.44843531,-0.00007026,0.00005379,-8091.35253906,0,0,0
1314271466.49799490,-0.00007025,0.00005381,-8092.10449219,0,0,0
1314271466.54848123,-0.00007026,0.00005379,-8092.85595703,0,0,0
1314271466.60074401,-0.00007025,0.00005381,-8093.60791016,0,0,0
1314271466.64854527,-0.00007026,0.00005379,-8094.35986328,0,0,0
1314271466.70047927,-0.00007025,0.00005381,-8095.11181641,0,0,0
1314271466.74952435,-0.00007026,0.00005379,-8095.86328125,0,0,0
1314271466.80046368,-0.00007025,0.00005381,-8096.61523438,0,0,0
1314271466.84959793,-0.00007025,0.00005379,-8097.36718750,0,0,0
1314271466.89785075,-0.00007025,0.00005381,-8098.11962891,0,0,0
1314271466.94858551,-0.00007025,0.00005379,-8098.87158203,0,0,0
1314271467.00046229,-0.00007025,0.00005381,-8099.62353516,0,0,0
1314271467.05032992,-0.00007025,0.00005379,-8100.37548828,0,0,0
1314271467.10049415,-0.00007025,0.00005381,-8101.12744141,0,0,0
1314271467.14978004,-0.00007025,0.00005379,-8101.87939453,0,0,0
1314271467.20047593,-0.00007025,0.00005381,-8102.63183594,0,0,0
1314271467.24960089,-0.00007025,0.00005379,-8103.38378906,0,0,0
1314271467.30046368,-0.00007024,0.00005381,-8104.13623047,0,0,0
1314271467.34859180,-0.00007025,0.00005379,-8104.88818359,0,0,0
1314271467.40047503,-0.00007024,0.00005381,-8105.64062500,0,0,0
1314271467.44852781,-0.00007025,0.00005378,-8106.39257812,0,0,0
1314271467.50048518,-0.00007024,0.00005381,-8107.14501953,0,0,0
1314271467.54949164,-0.00007025,0.00005378,-8107.89746094,0,0,0
1314271467.60046840,-0.00007024,0.00005381,-8108.64990234,0,0,0
1314271467.64846492,-0.00007024,0.00005378,-8109.40234375,0,0,0
1314271467.69758606,-0.00007024,0.00005381,-8110.15478516,0,0,0
1314271467.74960375,-0.00007024,0.00005378,-8110.90722656,0,0,0
1314271467.80087399,-0.00007024,0.00005381,-8111.65966797,0,0,0
1314271467.84768724,-0.00007024,0.00005378,-8112.41259766,0,0,0
1314271467.89748669,-0.00007024,0.00005381,-8113.16503906,0,0,0
1314271467.94947934,-0.00007024,0.00005378,-8113.91748047,0,0,0
1314271468.00055099,-0.00007023,0.00005381,-8114.67041016,0,0,0
1314271468.04957509,-0.00007024,0.00005378,-8115.42285156,0,0,0
1314271468.09743190,-0.00007023,0.00005380,-8116.17578125,0,0,0
1314271468.14846253,-0.00007024,0.00005378,-8116.92871094,0,0,0
1314271468.20047116,-0.00007023,0.00005380,-8117.68115234,0,0,0
1314271468.25250411,-0.00007024,0.00005378,-8118.43408203,0,0,0
1314271468.29755402,-0.00007023,0.00005380,-8119.18701172,0,0,0
1314271468.35033703,-0.00007024,0.00005378,-8119.93994141,0,0,0
1314271468.40043831,-0.00007023,0.00005380,-8120.69287109,0,0,0
1314271468.44850636,-0.00007024,0.00005378,-8121.44580078,0,0,0
1314271468.49829578,-0.00007023,0.00005380,-8122.19873047,0,0,0
1314271468.54846501,-0.00007023,0.00005378,-8122.95166016,0,0,0
1314271468.59760666,-0.00007023,0.00005380,-8123.70458984,0,0,0
1314271468.65155959,-0.00007023,0.00005378,-8124.45800781,0,0,0
1314271468.70160222,-0.00007023,0.00005380,-8125.21093750,0,0,0
1314271468.75019431,-0.00007023,0.00005378,-8125.96386719,0,0,0
1314271468.80047703,-0.00007022,0.00005380,-8126.71728516,0,0,0
1314271468.84961176,-0.00007023,0.00005378,-8127.47070312,0,0,0
1314271468.89816356,-0.00007022,0.00005380,-8128.22363281,0,0,0
1314271468.94858408,-0.00007023,0.00005378,-8128.97705078,0,0,0
1314271469.00159264,-0.00007022,0.00005380,-8129.73046875,0,0,0
1314271469.05038071,-0.00007023,0.00005378,-8130.48388672,0,0,0
1314271469.10151267,-0.00007022,0.00005380,-8131.23681641,0,0,0
1314271469.14948463,-0.00007023,0.00005378,-8131.99072266,0,0,0
1314271469.20046258,-0.00007022,0.00005380,-8132.74414062,0,0,0
1314271469.24959421,-0.00007023,0.00005378,-8133.49755859,0,0,0
1314271469.29801846,-0.00007022,0.00005380,-8134.25097656,0,0,0
1314271469.34847426,-0.00007022,0.00005377,-8135.00439453,0,0,0
1314271469.40126061,-0.00007022,0.00005380,-8135.75830078,0,0,0
1314271469.44848132,-0.00007022,0.00005377,-8136.51171875,0,0,0
1314271469.50049973,-0.00007021,0.00005380,-8137.26562500,0,0,0
1314271469.54948616,-0.00007022,0.00005377,-8138.01904297,0,0,0
1314271469.59247088,-0.00007021,0.00005380,-8138.77294922,0,0,0
1314271469.64858294,-0.00007021,0.00005380,-8139.37597656,0,0,0
1314271469.70336890,-0.00007021,0.00005380,-8140.28027344,0,0,0
1314271469.74960327,-0.00007022,0.00005377,-8141.03417969,0,0,0
1314271469.80101490,-0.00007021,0.00005380,-8141.78808594,0,0,0
1314271469.84992504,-0.00007022,0.00005377,-8142.54199219,0,0,0
1314271469.90149426,-0.00007021,0.00005380,-8143.29589844,0,0,0
1314271469.94984078,-0.00007022,0.00005377,-8144.04980469,0,0,0
1314271470.00178003,-0.00007021,0.00005380,-8144.80371094,0,0,0
1314271470.04859805,-0.00007022,0.00005377,-8145.55761719,0,0,0
1314271470.10144091,-0.00007021,0.00005380,-8146.31201172,0,0,0
1314271470.14859462,-0.00007021,0.00005377,-8147.06591797,0,0,0
1314271470.20158744,-0.00007020,0.00005380,-8147.82031250,0,0,0
1314271470.24847794,-0.00007021,0.00005377,-8148.57421875,0,0,0
1314271470.30161476,-0.00007020,0.00005379,-8149.32861328,0,0,0
1314271470.34966135,-0.00007021,0.00005377,-8150.08251953,0,0,0
1314271470.40167689,-0.00007020,0.00005379,-8150.83691406,0,0,0
1314271470.44962597,-0.00007021,0.00005377,-8151.59130859,0,0,0
1314271470.49760079,-0.00007020,0.00005379,-8152.34570312,0,0,0
1314271470.54959607,-0.00007021,0.00005377,-8153.10009766,0,0,0
1314271470.59761548,-0.00007020,0.00005379,-8153.85449219,0,0,0
1314271470.64961553,-0.00007021,0.00005377,-8154.60888672,0,0,0
1314271470.69762325,-0.00007020,0.00005379,-8155.36328125,0,0,0
1314271470.74952841,-0.00007021,0.00005377,-8156.11767578,0,0,0
1314271470.80044675,-0.00007020,0.00005379,-8156.87255859,0,0,0
1314271470.84859538,-0.00007020,0.00005377,-8157.62695312,0,0,0
1314271470.89746428,-0.00007019,0.00005379,-8158.38134766,0,0,0
1314271470.94847369,-0.00007020,0.00005376,-8159.13623047,0,0,0
1314271470.99759722,-0.00007019,0.00005379,-8159.89062500,0,0,0
1314271471.05250764,-0.00007020,0.00005376,-8160.64501953,0,0,0
1314271471.09758544,-0.00007019,0.00005379,-8161.39990234,0,0,0
1314271471.14959693,-0.00007020,0.00005376,-8162.15478516,0,0,0
1314271471.20045209,-0.00007019,0.00005379,-8162.90966797,0,0,0
1314271471.24850249,-0.00007020,0.00005376,-8163.66406250,0,0,0
1314271471.29832458,-0.00007019,0.00005379,-8164.41894531,0,0,0
1314271471.34950376,-0.00007020,0.00005376,-8165.17382812,0,0,0
1314271471.40222931,-0.00007019,0.00005379,-8165.92871094,0,0,0
1314271471.45247030,-0.00007020,0.00005376,-8166.68359375,0,0,0
1314271471.50180054,-0.00007018,0.00005379,-8167.43847656,0,0,0
1314271471.55035257,-0.00007019,0.00005376,-8168.19335938,0,0,0
1314271471.60083842,-0.00007018,0.00005379,-8168.94873047,0,0,0
1314271471.64959145,-0.00007019,0.00005376,-8169.70361328,0,0,0
1314271471.69818521,-0.00007018,0.00005379,-8170.45849609,0,0,0
1314271471.74846172,-0.00007019,0.00005376,-8171.21337891,0,0,0
1314271471.80461311,-0.00007018,0.00005379,-8171.96875000,0,0,0
1314271471.85248804,-0.00007019,0.00005376,-8172.72363281,0,0,0
1314271471.90161157,-0.00007018,0.00005379,-8173.47900391,0,0,0
1314271471.95022821,-0.00007019,0.00005376,-8174.23437500,0,0,0
1314271472.00115538,-0.00007018,0.00005378,-8174.98925781,0,0,0
1314271472.04858208,-0.00007019,0.00005376,-8175.74462891,0,0,0
1314271472.09804130,-0.00007017,0.00005378,-8176.50000000,0,0,0
1314271472.14960170,-0.00007018,0.00005376,-8177.25537109,0,0,0
1314271472.20160031,-0.00007017,0.00005378,-8178.01074219,0,0,0
1314271472.24856400,-0.00007018,0.00005375,-8178.76611328,0,0,0
1314271472.30112195,-0.00007017,0.00005378,-8179.52148438,0,0,0
1314271472.34947896,-0.00007018,0.00005375,-8180.27685547,0,0,0
1314271472.40056062,-0.00007017,0.00005378,-8181.03222656,0,0,0
1314271472.44859433,-0.00007018,0.00005375,-8181.78759766,0,0,0
1314271472.49803257,-0.00007017,0.00005378,-8182.54296875,0,0,0
1314271472.54859161,-0.00007018,0.00005375,-8183.29882812,0,0,0
1314271472.60050225,-0.00007017,0.00005378,-8184.05419922,0,0,0
1314271472.64991975,-0.00007018,0.00005375,-8184.80957031,0,0,0
1314271472.70085001,-0.00007016,0.00005378,-8185.56542969,0,0,0
1314271472.74950814,-0.00007017,0.00005375,-8186.32080078,0,0,0
1314271472.80045319,-0.00007016,0.00005378,-8187.07666016,0,0,0
1314271472.84844255,-0.00007017,0.00005375,-8187.83251953,0,0,0
1314271472.90579200,-0.00007016,0.00005378,-8188.58837891,0,0,0
1314271472.94844627,-0.00007017,0.00005375,-8189.34375000,0,0,0
1314271473.00044203,-0.00007016,0.00005378,-8190.09960938,0,0,0
1314271473.04848123,-0.00007017,0.00005375,-8190.85546875,0,0,0
1314271473.10044861,-0.00007016,0.00005378,-8191.61132812,0,0,0
1314271473.14951992,-0.00007017,0.00005375,-8192.36718750,0,0,0
1314271473.19247174,-0.00007015,0.00005378,-8193.12304688,0,0,0
1314271473.24944544,-0.00007015,0.00005378,-8193.72753906,0,0,0
1314271473.29763269,-0.00007015,0.00005378,-8194.63476562,0,0,0
1314271473.34847832,-0.00007016,0.00005374,-8195.39062500,0,0,0
1314271473.40059423,-0.00007015,0.00005377,-8196.14648438,0,0,0
1314271473.45020890,-0.00007016,0.00005374,-8196.90234375,0,0,0
1314271473.50058603,-0.00007015,0.00005377,-8197.65917969,0,0,0
1314271473.54957080,-0.00007016,0.00005374,-8198.41503906,0,0,0
1314271473.60044265,-0.00007015,0.00005377,-8199.17089844,0,0,0
1314271473.64861941,-0.00007016,0.00005374,-8199.92773438,0,0,0
1314271473.69751549,-0.00007014,0.00005377,-8200.68359375,0,0,0
1314271473.74950838,-0.00007015,0.00005374,-8201.43945312,0,0,0
1314271473.79759336,-0.00007014,0.00005377,-8202.19628906,0,0,0
1314271473.84950638,-0.00007015,0.00005374,-8202.95214844,0,0,0
1314271473.90060663,-0.00007014,0.00005377,-8203.70898438,0,0,0
1314271473.94954848,-0.00007015,0.00005374,-8204.46484375,0,0,0
1314271474.00064468,-0.00007014,0.00005377,-8205.22167969,0,0,0
1314271474.04950881,-0.00007015,0.00005374,-8205.97851562,0,0,0
1314271474.09850073,-0.00007014,0.00005377,-8206.73437500,0,0,0
1314271474.14851093,-0.00007015,0.00005374,-8207.49121094,0,0,0
1314271474.19752431,-0.00007013,0.00005377,-8208.24804688,0,0,0
1314271474.25249314,-0.00007014,0.00005374,-8209.00488281,0,0,0
1314271474.30044746,-0.00007013,0.00005377,-8209.76074219,0,0,0
1314271474.34948874,-0.00007014,0.00005374,-8210.51757812,0,0,0
1314271474.40151596,-0.00007013,0.00005377,-8211.27441406,0,0,0
1314271474.44951177,-0.00007014,0.00005373,-8212.03125000,0,0,0
1314271474.49793243,-0.00007013,0.00005377,-8212.78808594,0,0,0
1314271474.54960418,-0.00007014,0.00005373,-8213.54492188,0,0,0
1314271474.59789205,-0.00007013,0.00005377,-8214.30175781,0,0,0
1314271474.64845109,-0.00007014,0.00005373,-8215.05859375,0,0,0
1314271474.70045042,-0.00007012,0.00005377,-8215.81542969,0,0,0
1314271474.74944806,-0.00007014,0.00005373,-8216.57226562,0,0,0
1314271474.80139136,-0.00007012,0.00005377,-8217.32910156,0,0,0
1314271474.84851408,-0.00007013,0.00005373,-8218.08593750,0,0,0
1314271474.89829206,-0.00007012,0.00005376,-8218.84277344,0,0,0
1314271474.94959259,-0.00007013,0.00005373,-8219.59960938,0,0,0
1314271475.00161338,-0.00007012,0.00005376,-8220.35644531,0,0,0
1314271475.04847431,-0.00007013,0.00005373,-8221.11328125,0,0,0
1314271475.10164809,-0.00007012,0.00005376,-8221.87011719,0,0,0
1314271475.14953113,-0.00007013,0.00005373,-8222.62792969,0,0,0
1314271475.18847513,-0.00007011,0.00005376,-8223.38476562,0,0,0
1314271475.24858117,-0.00007011,0.00005376,-8223.99023438,0,0,0
1314271475.29809380,-0.00007011,0.00005376,-8224.89843750,0,0,0
1314271475.34858561,-0.00007012,0.00005373,-8225.65625000,0,0,0
1314271475.40052390,-0.00007011,0.00005376,-8226.41308594,0,0,0
1314271475.44996786,-0.00007012,0.00005373,-8227.16992188,0,0,0
1314271475.50065136,-0.00007011,0.00005376,-8227.92773438,0,0,0
1314271475.54947186,-0.00007012,0.00005373,-8228.68457031,0,0,0
1314271475.60062742,-0.00007011,0.00005376,-8229.44238281,0,0,0
1314271475.64846706,-0.00007012,0.00005372,-8230.19921875,0,0,0
1314271475.70195484,-0.00007010,0.00005376,-8230.95605469,0,0,0
1314271475.74847579,-0.00007012,0.00005372,-8231.71386719,0,0,0
1314271475.80163360,-0.00007010,0.00005376,-8232.47167969,0,0,0
1314271475.84849787,-0.00007011,0.00005372,-8233.22851562,0,0,0
1314271475.90071297,-0.00007010,0.00005376,-8233.98632812,0,0,0
1314271475.94948006,-0.00007011,0.00005372,-8234.74414062,0,0,0
1314271476.00120854,-0.00007010,0.00005376,-8235.50097656,0,0,0
1314271476.04859018,-0.00007011,0.00005372,-8236.25878906,0,0,0
1314271476.10197759,-0.00007010,0.00005376,-8237.01660156,0,0,0
1314271476.14959955,-0.00007011,0.00005372,-8237.77441406,0,0,0
1314271476.19354105,-0.00007010,0.00005376,-8238.53222656,0,0,0
1314271476.24967003,-0.00007009,0.00005376,-8239.13769531,0,0,0
1314271476.30151796,-0.00007009,0.00005375,-8240.04687500,0,0,0
1314271476.34950185,-0.00007011,0.00005372,-8240.80468750,0,0,0
1314271476.40051770,-0.00007009,0.00005375,-8241.56250000,0,0,0
1314271476.44962049,-0.00007010,0.00005372,-8242.32031250,0,0,0
1314271476.49779010,-0.00007009,0.00005375,-8243.07812500,0,0,0
1314271476.54968762,-0.00007010,0.00005372,-8243.83691406,0,0,0
1314271476.59760284,-0.00007009,0.00005375,-8244.59472656,0,0,0
1314271476.65086508,-0.00007010,0.00005372,-8245.35253906,0,0,0
1314271476.69759274,-0.00007009,0.00005375,-8246.11035156,0,0,0
1314271476.74950552,-0.00007010,0.00005372,-8246.86914062,0,0,0
1314271476.78951693,-0.00007008,0.00005375,-8247.62695312,0,0,0
1314271476.84952402,-0.00007008,0.00005375,-8248.23339844,0,0,0
1314271476.90051484,-0.00007008,0.00005375,-8249.14257812,0,0,0
1314271476.94861317,-0.00007009,0.00005371,-8249.90136719,0,0,0
1314271476.99760723,-0.00007008,0.00005375,-8250.65917969,0,0,0
1314271477.05011058,-0.00007009,0.00005371,-8251.41796875,0,0,0
1314271477.09753180,-0.00007008,0.00005375,-8252.17578125,0,0,0
1314271477.14948082,-0.00007009,0.00005371,-8252.93457031,0,0,0
1314271477.20048022,-0.00007008,0.00005375,-8253.69238281,0,0,0
1314271477.24963427,-0.00007009,0.00005371,-8254.45117188,0,0,0
1314271477.29839015,-0.00007007,0.00005375,-8255.20996094,0,0,0
1314271477.34947896,-0.00007009,0.00005371,-8255.96777344,0,0,0
1314271477.39751458,-0.00007007,0.00005375,-8256.72656250,0,0,0
1314271477.44875908,-0.00007009,0.00005371,-8257.48535156,0,0,0
1314271477.50154734,-0.00007007,0.00005375,-8258.24414062,0,0,0
1314271477.54854345,-0.00007008,0.00005371,-8259.00195312,0,0,0
1314271477.58961511,-0.00007007,0.00005375,-8259.76074219,0,0,0
1314271477.64850068,-0.00007007,0.00005374,-8260.36816406,0,0,0
1314271477.70042324,-0.00007007,0.00005374,-8261.27832031,0,0,0
1314271477.74944139,-0.00007008,0.00005371,-8262.03710938,0,0,0
1314271477.80048156,-0.00007006,0.00005374,-8262.79589844,0,0,0
1314271477.85247087,-0.00007008,0.00005371,-8263.55468750,0,0,0
1314271477.90048075,-0.00007006,0.00005374,-8264.31347656,0,0,0
1314271477.94847894,-0.00007008,0.00005371,-8265.07226562,0,0,0
1314271477.98969293,-0.00007006,0.00005374,-8265.83105469,0,0,0
1314271478.04844880,-0.00007006,0.00005374,-8266.43847656,0,0,0
1314271478.09811926,-0.00007006,0.00005374,-8267.34960938,0,0,0
1314271478.14849782,-0.00007007,0.00005370,-8268.10839844,0,0,0
1314271478.20139551,-0.00007006,0.00005374,-8268.86718750,0,0,0
1314271478.25161481,-0.00007007,0.00005370,-8269.62597656,0,0,0
1314271478.30048180,-0.00007006,0.00005374,-8270.38574219,0,0,0
1314271478.34946513,-0.00007007,0.00005370,-8271.14453125,0,0,0
1314271478.40045094,-0.00007005,0.00005374,-8271.90429688,0,0,0
1314271478.44846582,-0.00007007,0.00005370,-8272.66308594,0,0,0
1314271478.50196242,-0.00007005,0.00005374,-8273.42187500,0,0,0
1314271478.54848123,-0.00007006,0.00005370,-8274.18164062,0,0,0
1314271478.60117006,-0.00007005,0.00005374,-8274.94140625,0,0,0
1314271478.64847112,-0.00007006,0.00005370,-8275.70019531,0,0,0
1314271478.70149922,-0.00007005,0.00005374,-8276.45996094,0,0,0
1314271478.74949241,-0.00007006,0.00005370,-8277.21875000,0,0,0
1314271478.80149889,-0.00007005,0.00005374,-8277.97851562,0,0,0
1314271478.84859061,-0.00007006,0.00005370,-8278.73828125,0,0,0
1314271478.89783287,-0.00007004,0.00005374,-8279.49707031,0,0,0
1314271478.94960237,-0.00007006,0.00005370,-8280.25683594,0,0,0
1314271479.00048828,-0.00007004,0.00005374,-8281.01660156,0,0,0
1314271479.04847169,-0.00007006,0.00005370,-8281.77636719,0,0,0
1314271479.10057521,-0.00007004,0.00005373,-8282.53613281,0,0,0
1314271479.14849973,-0.00007005,0.00005369,-8283.29589844,0,0,0
1314271479.19251227,-0.00007004,0.00005373,-8284.05566406,0,0,0
1314271479.24955630,-0.00007004,0.00005373,-8284.66308594,0,0,0
1314271479.29768419,-0.00007004,0.00005373,-8285.57421875,0,0,0
1314271479.34847236,-0.00007005,0.00005369,-8286.33398438,0,0,0
1314271479.40127563,-0.00007004,0.00005373,-8287.09472656,0,0,0
1314271479.45055270,-0.00007005,0.00005369,-8287.85449219,0,0,0
1314271479.49759293,-0.00007003,0.00005373,-8288.61425781,0,0,0
1314271479.54852390,-0.00007005,0.00005369,-8289.37402344,0,0,0
1314271479.60049081,-0.00007003,0.00005373,-8290.13378906,0,0,0
1314271479.64965391,-0.00007004,0.00005369,-8290.89355469,0,0,0
1314271479.69756651,-0.00007003,0.00005373,-8291.65332031,0,0,0
1314271479.74952388,-0.00007004,0.00005369,-8292.41406250,0,0,0
1314271479.80060053,-0.00007003,0.00005373,-8293.17382812,0,0,0
1314271479.85162663,-0.00007004,0.00005369,-8293.93359375,0,0,0
1314271479.89760137,-0.00007003,0.00005373,-8294.69433594,0,0,0
1314271479.94984150,-0.00007004,0.00005369,-8295.45410156,0,0,0
1314271479.98848152,-0.00007002,0.00005373,-8296.21386719,0,0,0
1314271480.04958391,-0.00007002,0.00005373,-8296.82226562,0,0,0
1314271480.09843874,-0.00007002,0.00005373,-8297.73437500,0,0,0
1314271480.14957929,-0.00007004,0.00005369,-8298.49414062,0,0,0
1314271480.19754624,-0.00007002,0.00005373,-8299.25488281,0,0,0
1314271480.24954462,-0.00007003,0.00005369,-8300.01464844,0,0,0
1314271480.30048418,-0.00007002,0.00005373,-8300.77539062,0,0,0
1314271480.34970975,-0.00007003,0.00005368,-8301.53613281,0,0,0
1314271480.40044188,-0.00007002,0.00005372,-8302.29589844,0,0,0
1314271480.44952035,-0.00007003,0.00005368,-8303.05664062,0,0,0
1314271480.49827027,-0.00007001,0.00005372,-8303.81738281,0,0,0
1314271480.54851365,-0.00007003,0.00005368,-8304.57714844,0,0,0
1314271480.60075259,-0.00007001,0.00005372,-8305.33789062,0,0,0
1314271480.64857435,-0.00007003,0.00005368,-8306.09863281,0,0,0
1314271480.69758844,-0.00007001,0.00005372,-8306.85839844,0,0,0
1314271480.74948716,-0.00007002,0.00005368,-8307.61914062,0,0,0
1314271480.78852749,-0.00007001,0.00005372,-8308.37988281,0,0,0
1314271480.84964824,-0.00007001,0.00005372,-8308.98828125,0,0,0
1314271480.89813352,-0.00007001,0.00005372,-8309.90136719,0,0,0
1314271480.94960046,-0.00007002,0.00005368,-8310.66210938,0,0,0
1314271481.00151658,-0.00007000,0.00005372,-8311.42285156,0,0,0
1314271481.05257845,-0.00007002,0.00005368,-8312.18359375,0,0,0
1314271481.10089827,-0.00007000,0.00005372,-8312.94433594,0,0,0
1314271481.14950013,-0.00007002,0.00005368,-8313.70507812,0,0,0
1314271481.20096922,-0.00007000,0.00005372,-8314.46582031,0,0,0
1314271481.24954772,-0.00007002,0.00005368,-8315.22656250,0,0,0
1314271481.30400109,-0.00007000,0.00005372,-8315.98730469,0,0,0
1314271481.34959388,-0.00007001,0.00005368,-8316.74804688,0,0,0
1314271481.40134549,-0.00007000,0.00005372,-8317.50976562,0,0,0
1314271481.44971395,-0.00007001,0.00005367,-8318.27050781,0,0,0
1314271481.50150847,-0.00007000,0.00005372,-8319.03125000,0,0,0
1314271481.54950356,-0.00007001,0.00005367,-8319.79296875,0,0,0
1314271481.60046911,-0.00006999,0.00005372,-8320.55371094,0,0,0
1314271481.64953041,-0.00007001,0.00005367,-8321.31445312,0,0,0
1314271481.69786930,-0.00006999,0.00005371,-8322.07617188,0,0,0
1314271481.74953032,-0.00007001,0.00005367,-8322.83691406,0,0,0
1314271481.80161929,-0.00006999,0.00005371,-8323.59863281,0,0,0
1314271481.85053110,-0.00007000,0.00005367,-8324.35937500,0,0,0
1314271481.88953304,-0.00006999,0.00005371,-8325.12109375,0,0,0
1314271481.94990039,-0.00006999,0.00005371,-8325.72949219,0,1,0
1314271482.00101614,-0.00006999,0.00005371,-8326.64355469,0,1,0
1314271482.04853129,-0.00007000,0.00005367,-8327.40429688,0,1,0
1314271482.09771895,-0.00006998,0.00005371,-8328.16601562,0,1,0
1314271482.14875293,-0.00007000,0.00005367,-8328.92773438,0,1,0
1314271482.20111012,-0.00006998,0.00005371,-8329.68945312,0,1,0
1314271482.24862504,-0.00007000,0.00005367,-8330.45019531,0,1,0
1314271482.30050540,-0.00006998,0.00005371,-8331.21191406,0,1,0
1314271482.34949708,-0.00007000,0.00005367,-8331.97363281,0,1,0
1314271482.38850427,-0.00006998,0.00005371,-8332.73535156,0,1,0
1314271482.44957995,-0.00006998,0.00005371,-8333.34472656,0,1,0
1314271482.49771094,-0.00006998,0.00005371,-8334.25781250,0,1,0
1314271482.54958749,-0.00006999,0.00005367,-8335.01953125,0,1,0
1314271482.59759665,-0.00006998,0.00005371,-8335.78125000,0,1,0
1314271482.64847732,-0.00006999,0.00005367,-8336.54296875,0,1,0
1314271482.70150995,-0.00006997,0.00005371,-8337.30468750,0,1,0
1314271482.74961138,-0.00006999,0.00005367,-8338.06640625,0,1,0
1314271482.80046248,-0.00006997,0.00005371,-8338.82812500,0,1,0
1314271482.84947848,-0.00006999,0.00005367,-8339.58984375,0,1,0
1314271482.89744878,-0.00006997,0.00005371,-8340.35156250,0,1,0
1314271482.94851923,-0.00006999,0.00005366,-8341.11328125,0,1,0
1314271482.99750805,-0.00006997,0.00005371,-8341.87500000,0,1,0
1314271483.05013657,-0.00006999,0.00005366,-8342.63671875,0,1,0
1314271483.09757853,-0.00006997,0.00005370,-8343.39941406,0,1,0
1314271483.14849138,-0.00006998,0.00005366,-8344.16113281,0,1,0
1314271483.18847799,-0.00006997,0.00005370,-8344.92285156,0,1,0
1314271483.24919963,-0.00006996,0.00005370,-8345.53222656,0,1,0
1314271483.29830098,-0.00006996,0.00005370,-8346.44628906,0,1,0
1314271483.35031128,-0.00006998,0.00005366,-8347.20898438,0,1,0
1314271483.38955688,-0.00006996,0.00005370,-8347.97070312,0,1,0
1314271483.44846725,-0.00006996,0.00005370,-8348.58007812,0,1,0
1314271483.49759912,-0.00006996,0.00005370,-8349.49511719,0,1,0
1314271483.55034065,-0.00006998,0.00005366,-8350.25683594,0,1,0
1314271483.60059214,-0.00006996,0.00005370,-8351.01855469,0,1,0
1314271483.64947867,-0.00006997,0.00005366,-8351.78125000,0,1,0
1314271483.69824123,-0.00006996,0.00005370,-8352.54296875,0,1,0
1314271483.74959469,-0.00006997,0.00005366,-8353.30566406,0,1,0
1314271483.80128193,-0.00006995,0.00005370,-8354.06738281,0,1,0
1314271483.84843969,-0.00006997,0.00005366,-8354.83007812,0,1,0
1314271483.88960886,-0.00006995,0.00005370,-8355.59277344,0,1,0
1314271483.95018959,-0.00006995,0.00005370,-8356.20214844,0,1,0
1314271484.00053072,-0.00006995,0.00005370,-8357.11718750,0,1,0
1314271484.04861426,-0.00006997,0.00005366,-8357.87988281,0,1,0
1314271484.10043478,-0.00006995,0.00005370,-8358.64257812,0,1,0
1314271484.14974570,-0.00006997,0.00005366,-8359.40429688,0,1,0
